FW5735 Weather Reports


time (UTC)temp
C
wind
direction
speed
KPH
gust
KPH
rain 1hr
cm
rain 24hr
cm
rain mn
cm
humidity
%
barometer
mb
20260508141511 14 121 3.2 9.7 0.00 1.98 0.03 80 1001.5
20260508140003 13 117 3.2 8.0 0.00 1.98 0.03 81 1001.7
20260508134558 12 110 6.4 12.9 0.00 1.98 0.03 83 1001.7
20260508133059 11 229 3.2 9.7 0.00 1.98 0.03 83 1001.9
20260508131557 11 240 3.2 6.4 0.00 1.98 0.03 88 1001.9
20260508124550 10 179 0.0 3.2 0.00 1.98 0.03 99 1002.1
20260508123054 9 188 0.0 4.8 0.00 1.98 0.03 100 1001.9
20260508121545 8 180 0.0 0.0 0.00 1.98 0.03 100 1001.9
20260508120047 8 136 0.0 0.0 0.00 1.98 0.03 100 1002.2
20260508114549 7 124 3.2 6.4 0.00 1.98 0.03 100 1002.5
20260508113043 7 92 0.0 4.8 0.00 1.98 0.03 99 1002.5
20260508111547 7 108 0.0 6.4 0.00 1.98 0.03 99 1002.3
20260508110043 7 66 1.6 8.0 0.00 1.98 0.03 99 1002.4
20260508104544 7 69 4.8 9.7 0.03 1.98 0.03 99 1002.2
20260508103043 7 76 4.8 11.3 0.03 1.98 0.03 99 1002.3
20260508101541 7 74 0.0 4.8 0.03 1.98 0.03 100 1002.3
20260508100033 7 153 0.0 0.0 0.03 1.98 0.03 99 1002.2
20260508094543 7 155 0.0 0.0 0.00 1.96 0.00 99 1002.2
20260508093033 7 155 0.0 0.0 0.00 1.96 0.00 99 1001.7
20260508091547 7 154 0.0 0.0 0.00 1.96 0.00 99 1002.0
20260508090042 7 101 0.0 0.0 0.00 1.96 0.00 99 1001.5
20260508084528 7 61 0.0 0.0 0.00 1.96 0.00 99 1001.4
20260508083027 7 298 0.0 0.0 0.00 1.96 0.00 99 1001.8
20260508081532 7 297 0.0 0.0 0.00 1.96 0.00 99 1001.5
20260508080028 8 290 0.0 1.6 0.00 1.96 0.00 99 1001.7
20260508074523 8 311 3.2 9.7 0.00 1.96 0.00 99 1001.4
20260508073021 8 323 0.0 3.2 0.00 1.96 0.00 99 1001.4
20260508071523 8 78 0.0 0.0 0.00 1.96 0.00 99 1001.5
20260508070018 8 77 1.6 6.4 0.00 1.96 0.00 99 1001.5
20260508064527 8 142 0.0 0.0 0.00 1.96 0.00 99 1001.8
20260508063014 8 142 0.0 0.0 0.00 1.96 0.00 99 1001.5
20260508061520 8 142 0.0 0.0 0.00 1.96 0.00 99 1001.8
20260508060021 8 142 0.0 0.0 0.00 1.96 0.00 99 1001.5
20260508054513 8 142 0.0 0.0 0.00 1.96 0.00 99 1001.8
20260508053013 8 142 0.0 0.0 0.00 1.96 0.00 99 1001.6
20260508051512 8 142 0.0 0.0 0.00 1.96 0.00 99 1001.6
20260508050011 8 141 0.0 0.0 0.00 1.96 0.00 99 1001.7
20260508044511 8 138 0.0 0.0 0.00 1.96 0.00 99 1001.5
20260508043014 8 138 0.0 0.0 0.00 1.96 0.00 98 1001.5
20260508041507 8 139 0.0 1.6 0.00 1.96 0.00 98 1001.5
20260508040006 8 139 0.0 1.6 0.00 1.96 0.00 98 1001.9
20260508034504 9 69 0.0 12.9 0.00 1.96 0.00 97 1002.0
20260508033115 10 74 0.0 1.6 0.00 1.96 0.00 98 1001.9
20260508031556 10 74 0.0 4.8 0.00 1.96 0.00 98 1001.8
20260508030107 10 63 0.0 0.0 0.00 1.96 0.00 98 1002.0
20260508024618 10 45 0.0 0.0 0.00 1.96 1.96 97 1002.2
20260508023053 10 45 0.0 0.0 0.00 1.96 1.96 97 1002.1
20260508021552 11 45 0.0 1.6 0.00 1.96 1.96 97 1001.9
20260508020106 11 44 0.0 0.0 0.00 1.96 1.96 98 1002.0
20260508014557 11 42 0.0 3.2 0.00 1.96 1.96 97 1002.1
20260508013105 11 42 0.0 0.0 0.00 1.96 1.96 97 1002.1
20260508011557 11 42 0.0 3.2 0.00 1.96 1.96 97 1002.1
20260508010055 11 40 0.0 6.4 0.00 1.96 1.96 97 1002.1
20260508004549 11 15 1.6 8.0 0.00 1.96 1.96 97 1001.8
20260508003050 11 329 0.0 0.0 0.00 1.96 1.96 98 1001.8
20260508001555 11 306 1.6 6.4 0.00 1.96 1.96 97 1001.8
20260508000050 11 321 3.2 8.0 0.00 1.96 1.96 97 1001.8
20260507234547 12 16 1.6 4.8 0.00 1.96 1.96 97 1001.7
20260507233047 12 174 1.6 4.8 0.00 1.96 1.96 97 1001.5
20260507231547 12 176 1.6 4.8 0.00 1.96 1.96 97 1001.5
20260507230048 12 181 1.6 4.8 0.00 1.96 1.96 97 1001.2
20260507224545 12 209 0.0 4.8 0.00 1.96 1.96 97 1001.4
20260507223044 12 215 1.6 6.4 0.00 1.96 1.96 97 1001.3
20260507221543 12 234 3.2 9.7 0.00 1.96 1.96 97 1001.3
20260507220042 12 215 6.4 14.5 0.00 1.96 1.96 97 1001.6
20260507214546 12 185 4.8 16.1 0.00 1.96 1.96 97 1001.4
20260507213050 12 183 4.8 16.1 0.00 1.96 1.96 97 1001.5
20260507211549 12 227 9.7 24.1 0.00 1.96 1.96 97 1001.5
20260507210042 12 201 9.7 16.1 0.00 1.96 1.96 97 1001.4
20260507204541 12 165 6.4 16.1 0.03 1.96 1.96 97 1001.3
20260507203039 13 208 8.0 14.5 0.03 1.96 1.96 98 1001.2
20260507201543 12 205 1.6 8.0 0.05 1.96 1.96 98 1001.3
20260507200042 12 269 9.7 14.5 0.05 1.96 1.96 98 1001.2
20260507194535 12 288 8.0 12.9 0.15 1.93 1.93 98 1001.3
20260507193039 12 165 0.0 16.1 0.23 1.93 1.93 98 1000.6
20260507191533 12 77 11.3 17.7 0.33 1.91 1.91 98 1000.3
20260507190032 12 123 4.8 11.3 0.41 1.91 1.91 98 1001.4
20260507184533 12 165 8.0 12.9 0.43 1.80 1.80 98 1002.0
20260507183031 12 230 4.8 14.5 0.48 1.68 1.68 97 1003.0
20260507181523 12 173 9.7 16.1 0.66 1.57 1.57 97 1002.8
20260507180039 12 153 6.4 12.9 0.79 1.50 1.50 98 1003.1
20260507174525 12 182 6.4 16.1 0.94 1.35 1.35 98 1003.5
20260507173027 13 171 3.2 22.5 1.09 1.19 1.19 98 1003.3
20260507171520 13 222 6.4 16.1 0.89 0.91 0.91 98 1004.1
20260507170036 13 226 12.9 24.1 0.66 0.69 0.69 97 1004.2
20260507164517 13 238 12.9 25.7 0.36 0.36 0.36 96 1004.1
20260507163015 13 204 17.7 37.0 0.10 0.10 0.10 96 1003.5
20260507161512 13 179 17.7 38.6 0.05 0.05 0.05 95 1003.4
20260507160014 13 195 19.3 30.6 0.03 0.03 0.03 96 1003.5
20260507154510 13 191 14.5 33.8 0.00 0.00 0.00 95 1004.1
20260507153008 13 188 12.9 32.2 0.00 0.00 0.00 94 1004.6
20260507151504 13 206 14.5 27.4 0.00 0.00 0.00 94 1005.1
20260507150004 13 163 14.5 37.0 0.00 0.00 0.00 94 1005.1
20260507144501 13 172 17.7 37.0 0.00 0.00 0.00 93 1005.7
20260507143107 13 217 14.5 35.4 0.00 0.00 0.00 94 1006.1